[[{"header":{"parameterUnit":"m.s-1","parameterCategory":1,"la1":30.2991,"la2":30.254,"lo1":-89.0895,"lo2":-89.0444,"dy":0.0017,"dx":0.0017,"nx":28,"ny":28,"refTime":"2024-04-19T21:00:00:Z","depth":0,"parameterNumber":2,"parameterNumberName":"U-component_of_WINDS"},"data":[0,0,0,0,0,0,0,0,0,0,0,0,0,0,0,0,0,0,0,0,0,0,0,0,0,0,0,0,0,0,0,0,0,0,0,0,0,0,0,0,0,0,0,0,0,0,0,0,0,0,0,0,0,0,0,0,0,0,0.5557,0.5559,0,0.5681,0.5682,0.5684,0.5726,0.5726,0.5725,0.5725,0.585,0.5853,0.5857,0,0,0,0,0,0,0,0,0,0,0,0,0,0.5355,0.5359,0.5557,0.5559,0.556,0.5681,0.5682,0.5684,0.5726,0.5726,0.5725,0.5724,0.5848,0.5853,0.5857,0,0,0,0,0,0,0,0,0,0,0,0,0,0.5457,0.536,0.5557,0.5596,0.5601,0.568,0.5682,0.5684,0.5726,0.5726,0.5725,0.5724,0.5847,0.5852,0.5858,0.5907,0,0,0.5875,0.5878,0,0,0,0,0,0,0,0,0.5451,0.5464,0.5589,0.5593,0.5599,0.5687,0.5657,0.5759,0.5726,0.5679,0.5725,0.5724,0.5796,0.5806,0.5831,0.5913,0.5918,0.5876,0.5879,0.5882,0.5883,0,0,0,0,0,0,0,0.5444,0.5459,0.5606,0.559,0.5597,0.5606,0.562,0.5676,0.574,0.5683,0.5686,0.57,0.5799,0.5825,0.5834,0.592,0.5876,0.5881,0.5884,0.5886,0.6048,0.6049,0,0,0,0,0,0,0.5431,0.5453,0.5602,0.561,0.5522,0.5611,0.5626,0.566,0.5739,0.5751,0.5701,0.5702,0.5816,0.5827,0.5838,0.5901,0.5882,0.5887,0.589,0.6047,0.6048,0.6049,0,0,0,0,0,0,0.5426,0.5444,0.5597,0.5533,0.5553,0.5615,0.5652,0.5662,0.5689,0.5753,0.5764,0.5716,0.5816,0.583,0.589,0.5906,0.5889,0.5895,0.6046,0.6047,0.6049,0.6026,0,0,0,0,0,0,0.542,0.5442,0.5462,0.5533,0.5556,0.5647,0.5653,0.5665,0.5699,0.5701,0.577,0.5781,0.5816,0.5881,0.5895,0.5913,0.5899,0.6045,0.6047,0.6048,0.6025,0.6026,0.6027,0,0,0,0,0,0.5413,0.5451,0.5463,0.5481,0.5583,0.5648,0.5661,0.5701,0.57,0.572,0.5761,0.5779,0.5901,0.5887,0.5903,0.5923,0.6044,0.6046,0.6048,0.6025,0.6026,0.6027,0,0,0,0,0,0,0.538,0.5461,0.5475,0.5537,0.5585,0.5655,0.5682,0.5701,0.5751,0.5751,0.5798,0.5813,0.5868,0.5902,0.5884,0.5974,0.5974,0.5979,0.595,0.5952,0.5952,0.5943,0.5904,0,0,0,0,0,0.538,0.5427,0.5495,0.5542,0.5566,0.5619,0.5649,0.5676,0.5728,0.5748,0.5794,0.5843,0.5892,0.5924,0.5973,0.603,0.6045,0.6052,0.6052,0.6053,0.6057,0.6088,0.6092,0.6056,0.6056,0.6056,0,0,0.538,0.543,0.5457,0.5537,0.5577,0.5624,0.5636,0.5686,0.572,0.5756,0.5814,0.5849,0.5907,0.5965,0.5993,0.5994,0.607,0.6055,0.6055,0.6059,0.6091,0.6094,0.6097,0.6057,0.6057,0.6057,0,0,0.5404,0.5447,0.5491,0.5531,0.5593,0.5628,0.5638,0.5705,0.573,0.5789,0.5816,0.5858,0.5943,0.5982,0.6014,0.6051,0.6069,0.6066,0.607,0.61,0.6102,0.6105,0.6118,0.6122,0.607,0.607,0.6069,0,0.5396,0.5469,0.5511,0.5559,0.5593,0.5627,0.5671,0.5708,0.5782,0.5804,0.5805,0.5911,0.5952,0.6019,0.6028,0.6053,0.6065,0.6058,0.6099,0.6102,0.6105,0.6118,0.6122,0.6069,0.6069,0.6069,0.6069,0,0.5455,0.5505,0.5533,0.5604,0.5641,0.5687,0.5735,0.5767,0.579,0.5825,0.5884,0.5935,0.5994,0.6012,0.6035,0.6082,0.6081,0.609,0.609,0.6107,0.612,0.6125,0.6067,0.6068,0.6068,0.6068,0,0,0.5463,0.5556,0.5566,0.5598,0.5667,0.5706,0.5753,0.5811,0.5837,0.5887,0.5926,0.5996,0.6004,0.604,0.6067,0.6094,0.6119,0.6099,0.6101,0.61,0.6173,0.6166,0.6171,0.6131,0.6132,0.6133,0.6168,0,0.5495,0.5581,0.562,0.5688,0.5734,0.5766,0.5806,0.5853,0.5886,0.5929,0.5965,0.6014,0.6021,0.6043,0.607,0.611,0.6134,0.6108,0.6168,0.6169,0.6152,0.6178,0.6171,0.6202,0.6173,0.6174,0.6175,0,0.5546,0.5595,0.5668,0.5731,0.5752,0.5788,0.5844,0.5885,0.5937,0.596,0.5998,0.6024,0.6073,0.607,0.6138,0.6119,0.6145,0.6168,0.617,0.6178,0.6173,0.6185,0.6212,0.6217,0.6183,0.6182,0.6182,0,0.5543,0.5628,0.5682,0.5709,0.5784,0.5808,0.5841,0.5893,0.5925,0.5974,0.5995,0.6048,0.6077,0.6118,0.6157,0.6151,0.622,0.6221,0.624,0.6238,0.6253,0.6251,0.6284,0.627,0.627,0.627,0.627,0,0.5575,0.5618,0.5682,0.5715,0.5763,0.5807,0.5853,0.5888,0.5934,0.5974,0.6005,0.6041,0.6091,0.6133,0.6164,0.6215,0.6228,0.6246,0.6254,0.6244,0.6241,0.6262,0.626,0.6271,0.6271,0.6271,0.627,0,0.558,0.5625,0.5686,0.5752,0.577,0.5803,0.5859,0.5892,0.5926,0.5976,0.599,0.6044,0.6095,0.6138,0.6206,0.6226,0.6279,0.6288,0.6261,0.6265,0.6281,0.6279,0.6328,0.6337,0.6317,0.6317,0.6317,0,0.5598,0.5632,0.5702,0.5731,0.5763,0.5809,0.5843,0.5886,0.5919,0.5981,0.6006,0.606,0.6105,0.6185,0.623,0.6281,0.6292,0.6305,0.63,0.6288,0.6291,0.6289,0.6292,0.6306,0.6306,0.6306,0.6306,0,0.5624,0.5645,0.5692,0.5746,0.5785,0.583,0.5875,0.5897,0.5949,0.5984,0.6037,0.6072,0.614,0.6193,0.6249,0.6281,0.6302,0.6307,0.6314,0.6304,0.6286,0.6295,0.6262,0.6306,0.6306,0.6306,0.6306,0.6306,0.5636,0.5667,0.5721,0.5772,0.5811,0.5853,0.5887,0.5925,0.5971,0.603,0.6053,0.6107,0.6157,0.6235,0.6267,0.6309,0.6312,0.6322,0.6325,0.6327,0.6325,0.628,0.632,0.632,0.632,0.632,0.632,0,0.5664,0.57,0.5747,0.5809,0.5849,0.5865,0.5916,0.5948,0.5995,0.6041,0.6085,0.6145,0.6196,0.6244,0.6297,0.6321,0.6332,0.6334,0.6332,0.6339,0.632,0.6308,0.6324,0.6324,0.6324,0.6324,0.6324,0.6324,0.5683,0.5736,0.5763,0.5835,0.5871,0.5924,0.5952,0.599,0.6027,0.6093,0.6135,0.6166,0.6213,0.6269,0.6316,0.6329,0.6346,0.6346,0.6361,0.6342,0.6341,0.634,0.6329,0.6349,0.6349,0.6377,0.6377,0.6377]},{"header":{"parameterUnit":"m.s-1","parameterCategory":1,"la1":30.2991,"la2":30.254,"lo1":-89.0895,"lo2":-89.0444,"dy":0.0017,"dx":0.0017,"nx":28,"ny":28,"refTime":"2024-04-19T21:00:00:Z","depth":0,"parameterNumber":3,"parameterNumberName":"V-component_of_WINDS"},"data":[0,0,0,0,0,0,0,0,0,0,0,0,0,0,0,0,0,0,0,0,0,0,0,0,0,0,0,0,0,0,0,0,0,0,0,0,0,0,0,0,0,0,0,0,0,0,0,0,0,0,0,0,0,0,0,0,0,0,3.9404,3.9403,0,3.9342,3.9341,3.9341,3.9273,3.9272,3.9271,3.927,3.9203,3.9202,3.9201,0,0,0,0,0,0,0,0,0,0,0,0,0,3.9461,3.946,3.9404,3.9403,3.9403,3.9342,3.9341,3.934,3.9273,3.9272,3.9271,3.927,3.9203,3.9202,3.9201,0,0,0,0,0,0,0,0,0,0,0,0,0,3.9421,3.946,3.9404,3.9362,3.9357,3.9342,3.9341,3.934,3.9273,3.9272,3.927,3.9269,3.9203,3.9202,3.9201,3.9222,0,0,3.9197,3.9196,0,0,0,0,0,0,0,0,3.9424,3.9419,3.9369,3.9365,3.936,3.9314,3.9337,3.93,3.9274,3.9305,3.927,3.9268,3.9241,3.9236,3.9228,3.9218,3.9216,3.9197,3.9196,3.9195,3.9195,0,0,0,0,0,0,0,3.9426,3.9422,3.9379,3.9368,3.9363,3.9345,3.9337,3.9329,3.9282,3.9302,3.9297,3.9291,3.9238,3.9229,3.9225,3.9215,3.9197,3.9195,3.9195,3.9194,3.9219,3.9221,0,0,0,0,0,0,3.9436,3.9424,3.9381,3.9378,3.9389,3.9345,3.9337,3.933,3.9282,3.9273,3.9292,3.9288,3.9232,3.9227,3.9223,3.9244,3.9195,3.9194,3.9193,3.9218,3.922,3.9221,0,0,0,0,0,0,3.9438,3.9433,3.9384,3.94,3.9392,3.9345,3.9338,3.9329,3.9321,3.9274,3.9265,3.9292,3.9231,3.9225,3.9223,3.9241,3.9193,3.9192,3.9216,3.9218,3.922,3.9288,0,0,0,0,0,0,3.944,3.9434,3.9442,3.94,3.9391,3.9386,3.9339,3.9329,3.9319,3.9313,3.9272,3.9263,3.9229,3.9225,3.9221,3.9238,3.9191,3.9214,3.9217,3.922,3.9284,3.9292,3.9299,0,0,0,0,0,3.9442,3.9463,3.9443,3.9438,3.9401,3.9387,3.9382,3.9343,3.9321,3.9328,3.9298,3.9265,3.924,3.9225,3.9221,3.9238,3.9213,3.9216,3.9219,3.928,3.929,3.9299,0,0,0,0,0,0,3.9507,3.9456,3.9434,3.9442,3.942,3.9376,3.9384,3.9355,3.9338,3.9333,3.9284,3.9275,3.9279,3.9258,3.9243,3.9255,3.9221,3.9224,3.9269,3.9278,3.9286,3.9291,3.919,0,0,0,0,0,3.9522,3.9516,3.9472,3.9484,3.9474,3.9431,3.9424,3.9396,3.937,3.936,3.933,3.9305,3.9291,3.9283,3.9268,3.928,3.927,3.9289,3.9297,3.9303,3.9306,3.9311,3.9319,3.9232,3.9232,3.9232,0,0,3.9554,3.9526,3.9525,3.9496,3.9475,3.947,3.9423,3.9419,3.9414,3.9359,3.9356,3.9333,3.9302,3.9307,3.9307,3.9289,3.9328,3.9308,3.9313,3.9312,3.9315,3.9324,3.9331,3.9234,3.9234,3.9234,0,0,3.9609,3.9587,3.9594,3.9575,3.9544,3.9516,3.9518,3.9478,3.9461,3.9458,3.9416,3.9409,3.9386,3.9366,3.9353,3.9401,3.9369,3.9397,3.9437,3.9442,3.9449,3.9455,3.9472,3.9479,3.94,3.94,3.94,0,3.9651,3.9642,3.9601,3.96,3.9589,3.9539,3.9546,3.9528,3.9494,3.9487,3.9467,3.9439,3.9414,3.9414,3.9426,3.9417,3.9417,3.9402,3.9452,3.9457,3.9462,3.9478,3.9485,3.9403,3.9403,3.9403,3.9402,0,3.9697,3.9691,3.97,3.967,3.9659,3.9662,3.9621,3.9615,3.9588,3.9561,3.9558,3.9527,3.9505,3.9503,3.9476,3.9499,3.9488,3.9461,3.9426,3.9475,3.9489,3.9495,3.9409,3.9407,3.9406,3.9405,0,0,3.9791,3.9739,3.9743,3.9729,3.9692,3.9686,3.9686,3.9666,3.9662,3.9639,3.9638,3.9621,3.9595,3.958,3.955,3.9555,3.9595,3.9527,3.9525,3.9541,3.9619,3.9641,3.9649,3.9574,3.9575,3.9576,3.9622,0,3.984,3.9839,3.9802,3.981,3.9805,3.9757,3.9757,3.9734,3.9709,3.97,3.9671,3.966,3.9627,3.9618,3.962,3.959,3.961,3.9586,3.9572,3.9572,3.9582,3.9656,3.9678,3.9724,3.9627,3.9628,3.9629,0,3.9897,3.988,3.9888,3.9851,3.9847,3.9848,3.9827,3.9819,3.9791,3.9772,3.9756,3.9723,3.9719,3.9686,3.9681,3.9665,3.9657,3.9641,3.9642,3.9639,3.9604,3.9656,3.9737,3.9744,3.9637,3.9636,3.9636,0,3.9966,3.9944,3.9947,3.9936,3.9893,3.9895,3.9877,3.9848,3.9838,3.9819,3.9812,3.9792,3.9781,3.9766,3.9728,3.9707,3.9727,3.969,3.9711,3.9712,3.9718,3.9718,3.9799,3.9711,3.9711,3.9711,3.9711,0,4.0025,4.0032,3.9978,3.998,3.9986,3.9943,3.995,3.9927,3.9902,3.9898,3.9855,3.9851,3.9801,3.9791,3.9761,3.9761,3.9756,3.974,3.9732,3.9745,3.9747,3.9739,3.9735,3.9713,3.9712,3.9712,3.9712,0,4.0103,4.0067,4.0067,4.0026,4.0016,4.0023,3.9988,3.9987,3.9959,3.9954,3.9951,3.9907,3.9894,3.9854,3.983,3.9809,3.9819,3.9803,3.9829,3.9824,3.9847,3.9846,3.9927,3.9935,3.9842,3.9843,3.9843,0,4.0144,4.0148,4.0109,4.0103,4.0088,4.0079,4.007,4.0027,4.0018,3.9987,3.999,3.9974,3.9959,3.9939,3.9905,3.9886,3.987,3.99,3.9867,3.988,3.9871,3.9872,3.9872,3.9907,3.9908,3.9909,3.991,0,4.022,4.0202,4.019,4.0172,4.0162,4.0146,4.0127,4.0124,4.0076,4.0069,4.0055,4.0044,4.002,4.0004,3.998,3.996,3.9927,3.9921,3.9925,3.9938,3.9953,3.9946,3.9849,3.9919,3.9918,3.9918,3.9917,3.9917,4.0281,4.0283,4.0256,4.0244,4.0225,4.0209,4.0206,4.0179,4.0168,4.0146,4.0121,4.0111,4.0082,4.0047,4.0029,4.0019,4.0002,4.0007,4.0009,4.0011,4.0017,3.9954,4.0015,4.0014,4.0014,4.0014,4.0014,0,4.0355,4.0335,4.0325,4.0301,4.0291,4.0262,4.0239,4.0233,4.0225,4.0202,4.0188,4.0173,4.0157,4.0122,4.0103,4.0102,4.0086,4.0098,4.0098,4.0094,4.0034,4.0033,4.0111,4.0111,4.0111,4.0111,4.0111,4.0111,4.0393,4.0396,4.0374,4.0367,4.0346,4.0337,4.0327,4.0311,4.0292,4.0278,4.0265,4.0242,4.0214,4.0192,4.0176,4.0166,4.0161,4.0178,4.0163,4.0108,4.0098,4.009,4.0089,4.0177,4.0178,4.0225,4.0225,4.0226]}]]